[[{"header":{"parameterUnit":"m.s-1","parameterCategory":1,"la1":30.2991,"la2":30.254,"lo1":-89.0895,"lo2":-89.0444,"dy":0.0017,"dx":0.0017,"nx":28,"ny":28,"refTime":"2024-12-03T09:00:00:Z","depth":0,"parameterNumber":2,"parameterNumberName":"U-component_of_WINDS"},"data":[0,0,0,0,0,0,0,0,0,0,0,0,0,0,0,0,0,0,0,0,0,0,0,0,0,0,0,0,0,0,0,0,0,0,0,0,0,0,0,0,0,0,0,0,0,0,0,0,0,0,0,0,0,0,0,0,0,0,-1.7805,-1.7804,0,-1.778,-1.778,-1.778,-1.7723,-1.7721,-1.772,-1.7719,-1.7696,-1.7697,-1.7697,0,0,0,0,0,0,0,0,0,0,0,0,0,-1.7803,-1.7803,-1.7805,-1.7804,-1.7804,-1.778,-1.778,-1.778,-1.7723,-1.7721,-1.772,-1.7719,-1.7696,-1.7697,-1.7697,0,0,0,0,0,0,0,0,0,0,0,0,0,-1.7794,-1.7803,-1.7805,-1.7773,-1.777,-1.7781,-1.778,-1.778,-1.7723,-1.7721,-1.772,-1.7718,-1.7696,-1.7696,-1.7697,-1.7738,0,0,-1.77,-1.77,0,0,0,0,0,0,0,0,-1.7794,-1.7794,-1.7778,-1.7775,-1.7771,-1.7753,-1.7771,-1.7766,-1.7724,-1.7741,-1.7719,-1.7717,-1.7717,-1.7715,-1.7715,-1.7737,-1.7736,-1.77,-1.77,-1.77,-1.7701,0,0,0,0,0,0,0,-1.7795,-1.7794,-1.7795,-1.7778,-1.7774,-1.776,-1.7757,-1.777,-1.7739,-1.7739,-1.7735,-1.7733,-1.7714,-1.7714,-1.7714,-1.7735,-1.77,-1.77,-1.7701,-1.7701,-1.7789,-1.7791,0,0,0,0,0,0,-1.78,-1.7795,-1.7796,-1.7794,-1.7779,-1.7761,-1.7758,-1.7761,-1.7739,-1.7734,-1.7734,-1.773,-1.7714,-1.7713,-1.7713,-1.7759,-1.77,-1.7701,-1.7702,-1.7788,-1.779,-1.7792,0,0,0,0,0,0,-1.78,-1.7801,-1.7797,-1.7794,-1.7792,-1.7763,-1.7767,-1.7761,-1.7761,-1.7735,-1.773,-1.774,-1.7712,-1.7712,-1.7732,-1.7758,-1.7701,-1.7702,-1.7785,-1.7788,-1.7791,-1.7852,0,0,0,0,0,0,-1.78,-1.7801,-1.7816,-1.7794,-1.7793,-1.7816,-1.7769,-1.7762,-1.7762,-1.7756,-1.7739,-1.7734,-1.7711,-1.7731,-1.7733,-1.7758,-1.7703,-1.7783,-1.7787,-1.779,-1.7848,-1.7857,-1.7865,0,0,0,0,0,-1.78,-1.7834,-1.7817,-1.7817,-1.781,-1.7818,-1.7817,-1.7789,-1.7764,-1.7779,-1.7763,-1.7735,-1.7754,-1.7734,-1.7735,-1.7761,-1.7781,-1.7786,-1.779,-1.7844,-1.7855,-1.7865,0,0,0,0,0,0,-1.786,-1.7831,-1.7811,-1.7839,-1.7831,-1.7808,-1.7826,-1.7801,-1.7801,-1.7796,-1.7762,-1.7758,-1.7783,-1.7774,-1.7751,-1.7799,-1.7763,-1.7768,-1.7804,-1.7815,-1.7823,-1.7825,-1.7703,0,0,0,0,0,-1.7877,-1.7885,-1.7859,-1.7886,-1.7883,-1.7855,-1.7857,-1.7837,-1.7827,-1.7824,-1.7809,-1.7801,-1.7806,-1.7809,-1.7812,-1.7846,-1.7842,-1.7864,-1.7873,-1.788,-1.7885,-1.7902,-1.7912,-1.7806,-1.7806,-1.7806,0,0,-1.7911,-1.7896,-1.7903,-1.7898,-1.7889,-1.7898,-1.7853,-1.7865,-1.7872,-1.7826,-1.7844,-1.7833,-1.7822,-1.7849,-1.786,-1.7842,-1.7913,-1.7885,-1.7891,-1.7892,-1.7908,-1.7918,-1.7927,-1.7809,-1.7808,-1.7808,0,0,-1.7978,-1.7967,-1.7989,-1.7981,-1.7968,-1.795,-1.7955,-1.7935,-1.7926,-1.7943,-1.7909,-1.7917,-1.7925,-1.7919,-1.7917,-1.7981,-1.7956,-1.7983,-1.8027,-1.8045,-1.8053,-1.8061,-1.8084,-1.8093,-1.7987,-1.7988,-1.7988,0,-1.8023,-1.8035,-1.8003,-1.8017,-1.8016,-1.7974,-1.7996,-1.799,-1.7979,-1.798,-1.7959,-1.7968,-1.7958,-1.7984,-1.7999,-1.7999,-1.8004,-1.7985,-1.8054,-1.8061,-1.8068,-1.809,-1.8099,-1.7991,-1.7991,-1.799,-1.799,0,-1.809,-1.8099,-1.8118,-1.8108,-1.8109,-1.8127,-1.8099,-1.8104,-1.8083,-1.8066,-1.8085,-1.8071,-1.807,-1.8074,-1.8054,-1.8097,-1.8086,-1.806,-1.8024,-1.8082,-1.8102,-1.8111,-1.7996,-1.7995,-1.7994,-1.7993,0,0,-1.8196,-1.8167,-1.8175,-1.817,-1.8153,-1.8159,-1.8175,-1.8174,-1.8179,-1.8173,-1.8186,-1.8194,-1.817,-1.8167,-1.8146,-1.8161,-1.8214,-1.8134,-1.8133,-1.815,-1.8262,-1.8282,-1.8293,-1.8197,-1.8198,-1.8199,-1.8263,0,-1.826,-1.8285,-1.8257,-1.8289,-1.8297,-1.8257,-1.8271,-1.8262,-1.8247,-1.8253,-1.8236,-1.8242,-1.821,-1.8208,-1.8221,-1.8205,-1.8236,-1.82,-1.8209,-1.821,-1.8215,-1.8303,-1.8325,-1.8385,-1.8271,-1.8272,-1.8273,0,-1.8338,-1.8335,-1.8368,-1.8348,-1.835,-1.8363,-1.836,-1.8365,-1.8354,-1.8342,-1.834,-1.8313,-1.8328,-1.8292,-1.8313,-1.8288,-1.829,-1.8283,-1.8285,-1.8286,-1.8246,-1.8307,-1.8404,-1.8414,-1.8285,-1.8284,-1.8283,0,-1.8413,-1.8417,-1.8437,-1.8434,-1.8411,-1.8421,-1.8412,-1.84,-1.8401,-1.8398,-1.8398,-1.8397,-1.8397,-1.8397,-1.8371,-1.8347,-1.8395,-1.8357,-1.8387,-1.8387,-1.84,-1.84,-1.8499,-1.8399,-1.8399,-1.8399,-1.8399,0,-1.8488,-1.851,-1.847,-1.8483,-1.8506,-1.8473,-1.8497,-1.8484,-1.8473,-1.8483,-1.8448,-1.8458,-1.8423,-1.8429,-1.8409,-1.843,-1.8429,-1.8421,-1.8416,-1.8425,-1.8426,-1.8427,-1.8422,-1.8401,-1.8401,-1.84,-1.84,0,-1.8577,-1.8551,-1.857,-1.8546,-1.8541,-1.8559,-1.854,-1.855,-1.8533,-1.8545,-1.8546,-1.8519,-1.8525,-1.8499,-1.85,-1.8486,-1.8518,-1.8504,-1.8521,-1.8518,-1.8549,-1.8547,-1.8654,-1.8667,-1.8558,-1.8559,-1.856,0,-1.8627,-1.8642,-1.8621,-1.8624,-1.8617,-1.8623,-1.8624,-1.8592,-1.8594,-1.8583,-1.8595,-1.8598,-1.8598,-1.8609,-1.859,-1.8591,-1.8578,-1.8615,-1.8578,-1.8587,-1.858,-1.858,-1.8582,-1.8624,-1.8625,-1.8626,-1.8627,0,-1.8719,-1.8705,-1.8707,-1.8705,-1.8706,-1.8703,-1.8697,-1.8703,-1.8668,-1.8672,-1.8677,-1.8678,-1.8678,-1.8682,-1.8679,-1.867,-1.8643,-1.8639,-1.8646,-1.8656,-1.8666,-1.8662,-1.8544,-1.8637,-1.8636,-1.8635,-1.8634,-1.8634,-1.8791,-1.8803,-1.8789,-1.8793,-1.8785,-1.878,-1.8789,-1.8772,-1.8776,-1.8774,-1.8754,-1.8763,-1.8752,-1.8745,-1.8738,-1.8745,-1.8728,-1.8738,-1.8741,-1.8744,-1.875,-1.8663,-1.8744,-1.8744,-1.8744,-1.8744,-1.8743,0,-1.8882,-1.8871,-1.8874,-1.8867,-1.887,-1.8843,-1.8836,-1.884,-1.8848,-1.8839,-1.884,-1.8846,-1.8849,-1.8829,-1.883,-1.8839,-1.8827,-1.884,-1.884,-1.8839,-1.8765,-1.8759,-1.885,-1.885,-1.885,-1.885,-1.885,-1.885,-1.893,-1.895,-1.8934,-1.8949,-1.8938,-1.8946,-1.8944,-1.894,-1.8933,-1.8941,-1.8943,-1.8929,-1.8917,-1.8916,-1.8917,-1.8911,-1.8914,-1.8932,-1.8922,-1.8854,-1.8844,-1.8834,-1.8828,-1.8932,-1.8932,-1.8995,-1.8996,-1.8996]},{"header":{"parameterUnit":"m.s-1","parameterCategory":1,"la1":30.2991,"la2":30.254,"lo1":-89.0895,"lo2":-89.0444,"dy":0.0017,"dx":0.0017,"nx":28,"ny":28,"refTime":"2024-12-03T09:00:00:Z","depth":0,"parameterNumber":3,"parameterNumberName":"V-component_of_WINDS"},"data":[0,0,0,0,0,0,0,0,0,0,0,0,0,0,0,0,0,0,0,0,0,0,0,0,0,0,0,0,0,0,0,0,0,0,0,0,0,0,0,0,0,0,0,0,0,0,0,0,0,0,0,0,0,0,0,0,0,0,-3.6532,-3.6533,0,-3.6606,-3.6607,-3.6607,-3.6618,-3.6617,-3.6616,-3.6616,-3.6687,-3.669,-3.6692,0,0,0,0,0,0,0,0,0,0,0,0,0,-3.6396,-3.6399,-3.6532,-3.6533,-3.6534,-3.6606,-3.6607,-3.6608,-3.6618,-3.6617,-3.6616,-3.6615,-3.6686,-3.6689,-3.6692,0,0,0,0,0,0,0,0,0,0,0,0,0,-3.6461,-3.64,-3.6532,-3.6548,-3.655,-3.6605,-3.6607,-3.6608,-3.6618,-3.6617,-3.6616,-3.6615,-3.6685,-3.6689,-3.6693,-3.6737,0,0,-3.6704,-3.6706,0,0,0,0,0,0,0,0,-3.6457,-3.6466,-3.6544,-3.6547,-3.6549,-3.6602,-3.6585,-3.6651,-3.6618,-3.6592,-3.6616,-3.6614,-3.6659,-3.6665,-3.6681,-3.674,-3.6743,-3.6705,-3.6707,-3.6709,-3.671,0,0,0,0,0,0,0,-3.6453,-3.6463,-3.6561,-3.6545,-3.6548,-3.655,-3.6558,-3.6598,-3.663,-3.6594,-3.6595,-3.6604,-3.666,-3.6677,-3.6683,-3.6744,-3.6705,-3.6708,-3.671,-3.6712,-3.6844,-3.6845,0,0,0,0,0,0,-3.6446,-3.6459,-3.6559,-3.6563,-3.65,-3.6553,-3.6562,-3.6586,-3.663,-3.6636,-3.6605,-3.6604,-3.6671,-3.6678,-3.6685,-3.6741,-3.6709,-3.6712,-3.6714,-3.6842,-3.6844,-3.6845,0,0,0,0,0,0,-3.6443,-3.6455,-3.6556,-3.6512,-3.6525,-3.6557,-3.6583,-3.6588,-3.6605,-3.6638,-3.6643,-3.6616,-3.6671,-3.668,-3.6724,-3.6743,-3.6714,-3.6717,-3.6841,-3.6843,-3.6844,-3.6851,0,0,0,0,0,0,-3.6439,-3.6454,-3.6472,-3.6512,-3.6527,-3.6594,-3.6584,-3.659,-3.6612,-3.6612,-3.665,-3.6656,-3.6671,-3.6719,-3.6728,-3.6748,-3.672,-3.6839,-3.6842,-3.6844,-3.6849,-3.6852,-3.6855,0,0,0,0,0,-3.6434,-3.6469,-3.6472,-3.6484,-3.655,-3.6596,-3.6604,-3.6622,-3.6613,-3.6631,-3.6652,-3.6654,-3.6739,-3.6723,-3.6734,-3.6755,-3.6838,-3.6841,-3.6844,-3.6847,-3.6852,-3.6855,0,0,0,0,0,0,-3.6428,-3.6475,-3.6479,-3.6528,-3.6558,-3.6597,-3.662,-3.6626,-3.6657,-3.6656,-3.6675,-3.6684,-3.6728,-3.6745,-3.6726,-3.68,-3.6788,-3.6793,-3.6787,-3.6791,-3.6795,-3.6789,-3.6724,0,0,0,0,0,-3.6433,-3.6468,-3.6506,-3.6545,-3.656,-3.6588,-3.6608,-3.6619,-3.6651,-3.6663,-3.6687,-3.6717,-3.675,-3.6772,-3.6804,-3.6851,-3.686,-3.6871,-3.6874,-3.6877,-3.6881,-3.6908,-3.6914,-3.6854,-3.6854,-3.6854,0,0,-3.6442,-3.6472,-3.6492,-3.6545,-3.6569,-3.6604,-3.6598,-3.6634,-3.666,-3.6668,-3.6712,-3.6731,-3.6765,-3.6811,-3.6833,-3.6828,-3.69,-3.688,-3.6882,-3.6885,-3.6912,-3.6917,-3.6922,-3.6856,-3.6856,-3.6855,0,0,-3.6478,-3.6503,-3.654,-3.6565,-3.6603,-3.6621,-3.663,-3.6669,-3.6682,-3.6727,-3.6734,-3.6764,-3.6821,-3.6845,-3.6865,-3.691,-3.6914,-3.692,-3.6937,-3.6964,-3.6968,-3.6973,-3.699,-3.6995,-3.6924,-3.6924,-3.6924,0,-3.6484,-3.6538,-3.6557,-3.6594,-3.6617,-3.6628,-3.6665,-3.6687,-3.6733,-3.6749,-3.6742,-3.6815,-3.6838,-3.6891,-3.6902,-3.6917,-3.6928,-3.6916,-3.6966,-3.6971,-3.6975,-3.6991,-3.6998,-3.6925,-3.6925,-3.6925,-3.6925,0,-3.6544,-3.6581,-3.6606,-3.6652,-3.6678,-3.6714,-3.6739,-3.6762,-3.6771,-3.679,-3.6835,-3.6864,-3.6903,-3.6916,-3.6924,-3.697,-3.6966,-3.6963,-3.6951,-3.6981,-3.6997,-3.7003,-3.6926,-3.6925,-3.6925,-3.6925,0,0,-3.6577,-3.6635,-3.6644,-3.6666,-3.6709,-3.6737,-3.6774,-3.6814,-3.6833,-3.6864,-3.6896,-3.6944,-3.6942,-3.6965,-3.6976,-3.6999,-3.7034,-3.6993,-3.6994,-3.7,-3.7087,-3.7089,-3.7096,-3.7036,-3.7038,-3.7038,-3.7084,0,-3.6618,-3.6686,-3.6705,-3.6762,-3.6797,-3.6807,-3.6839,-3.6869,-3.6887,-3.6918,-3.6938,-3.6972,-3.6966,-3.698,-3.7003,-3.7025,-3.7052,-3.7022,-3.7065,-3.7066,-3.7057,-3.7104,-3.7107,-3.7149,-3.709,-3.7091,-3.7092,0,-3.6675,-3.6709,-3.677,-3.681,-3.6825,-3.6854,-3.6892,-3.6922,-3.6955,-3.6967,-3.6993,-3.7002,-3.704,-3.7026,-3.7079,-3.7058,-3.7077,-3.709,-3.7092,-3.7098,-3.7081,-3.7111,-3.7162,-3.7169,-3.7102,-3.7101,-3.71,0,-3.6694,-3.6755,-3.68,-3.6818,-3.6865,-3.6885,-3.6906,-3.6938,-3.6961,-3.6994,-3.7009,-3.7046,-3.7066,-3.7093,-3.7112,-3.71,-3.7163,-3.7151,-3.7174,-3.7173,-3.7187,-3.7186,-3.7242,-3.7198,-3.7198,-3.7198,-3.7198,0,-3.6738,-3.6775,-3.681,-3.6837,-3.6879,-3.69,-3.694,-3.6961,-3.699,-3.7021,-3.7031,-3.706,-3.7083,-3.7115,-3.7129,-3.7171,-3.718,-3.719,-3.7193,-3.719,-3.7188,-3.7202,-3.72,-3.7199,-3.7199,-3.7199,-3.7198,0,-3.6766,-3.6791,-3.6841,-3.6882,-3.6894,-3.6922,-3.6957,-3.6984,-3.7003,-3.7042,-3.7052,-3.7082,-3.712,-3.7141,-3.7188,-3.7198,-3.7245,-3.7247,-3.7234,-3.7236,-3.7258,-3.7256,-3.7326,-3.7337,-3.7285,-3.7285,-3.7285,0,-3.6793,-3.6822,-3.6867,-3.689,-3.6911,-3.6947,-3.6971,-3.6993,-3.7017,-3.7058,-3.708,-3.7118,-3.7151,-3.721,-3.7235,-3.7271,-3.7275,-3.7297,-3.728,-3.7275,-3.7276,-3.7274,-3.7277,-3.7299,-3.73,-3.73,-3.7301,0,-3.6838,-3.685,-3.6885,-3.6925,-3.6954,-3.6985,-3.7017,-3.7034,-3.7061,-3.7088,-3.7128,-3.7153,-3.7202,-3.724,-3.7279,-3.7298,-3.7304,-3.7306,-3.7313,-3.731,-3.7302,-3.7307,-3.7243,-3.7304,-3.7304,-3.7303,-3.7303,-3.7303,-3.6868,-3.6894,-3.6931,-3.697,-3.6996,-3.7026,-3.7053,-3.7077,-3.7111,-3.7153,-3.7164,-3.7206,-3.7238,-3.7291,-3.7312,-3.7344,-3.734,-3.7351,-3.7353,-3.7356,-3.7357,-3.7296,-3.7351,-3.7351,-3.7351,-3.7351,-3.7351,0,-3.6914,-3.6938,-3.6974,-3.7019,-3.705,-3.7054,-3.7089,-3.7114,-3.7151,-3.7182,-3.7214,-3.726,-3.7298,-3.7326,-3.7364,-3.7385,-3.7388,-3.7394,-3.7393,-3.7398,-3.7358,-3.7348,-3.7391,-3.7391,-3.7391,-3.7391,-3.7391,-3.7391,-3.6942,-3.6988,-3.7003,-3.7062,-3.7086,-3.7129,-3.7149,-3.7176,-3.7201,-3.7252,-3.7284,-3.7303,-3.7333,-3.7373,-3.7408,-3.7415,-3.7429,-3.7434,-3.7442,-3.7405,-3.74,-3.7396,-3.7387,-3.7437,-3.7437,-3.7479,-3.7479,-3.748]}]]